Regional Weather Roundup
Issued by NWS

Home | Current Version | Previous Version | Text Only | Print | Product List | Glossary On
Versions: 1 2 3 4 5 6 7 8 9 10 11 12 13 14 15 16 17 18 19 20 21 22 23 24 25 26 27 28 29 30 31 32 33 34 35 36 37 38 39 40 41 42 43 44 45 46 47 48 49 50
000
ASUS44 KFWD 120215
RWRTX
NORTH TEXAS HOURLY WEATHER ROUNDUP
NATIONAL WEATHER SERVICE FORT WORTH TX
900 PM CDT FRI JUL 11 2014

NOTE: "FAIR" INDICATES FEW OR NO CLOUDS BELOW 12,000 FEET WITH NO
SIGNIFICANT WEATHER AND/OR OBSTRUCTIONS TO VISIBILITY.

TXZ118-119-120300-
DALLAS/FORT WORTH METROPLEX

CITY           SKY/WX    TMP DP  RH WIND       PRES   REMARKS
DFW AIRPORT    CLEAR     89  59  36 S10       30.07R
DALLAS LOVE    CLEAR     90  57  32 S12       30.07R HAZE
FTW MEACHAM    CLEAR     88  61  40 S8        30.06R
DAL-EXECUTIVE  CLEAR     89  57  33 S10       30.07R
FTW-ALLIANCE   CLEAR     86  60  41 S7        30.06R
FTW-NAS-JRB    CLEAR     88  59  37 S8        30.10R
FTW-SPINKS     CLEAR     85  61  45 S5        30.09R HAZE
ARLINGTON      CLEAR     87  59  38 SE7       30.07R
GRAND PRAIRIE  CLEAR     89  57  33 SE6       30.08S
ADDISON        CLEAR     90  55  31 S10       30.08R
LANCASTER      CLEAR     81  60  48 S5        30.08S
$$

TXZ091>094-102>105-117-120-121-131>134-120300-
NORTH CENTRAL TEXAS

CITY           SKY/WX    TMP DP  RH WIND       PRES   REMARKS
SHRMAN/DENISON CLEAR     88  60  38 SE9       30.08R
GAINESVILLE    CLEAR     85  61  45 S7        30.10R
BOWIE          CLEAR     84  58  41 S6        30.07R
BRIDGEPORT     CLEAR     85  57  38 S7        30.09R
DECATUR        CLEAR     87  56  35 S10       30.09R
DENTON         CLEAR     85  59  41 S9        30.07R
MCKINNEY       CLEAR     87  63  44 S8        30.08R
GREENVILLE     CLEAR     81  66  61 SE3       30.10R
ROCKWALL       CLEAR     86  65  50 SE5       30.08R
TERRELL        CLEAR     87  65  47 SE6       30.09R
WAXAHACHIE     CLEAR     84  55  36 SE6       30.10R
CLEBURNE       CLEAR     84  64  51 SE8       30.10R
GRANBURY       CLEAR     86  58  38 SE5       30.09R
$$

TXZ083>090-098>101-113>116-127>130-139>142-154-155-120300-
WESTERN NORTH TEXAS

CITY           SKY/WX    TMP DP  RH WIND       PRES   REMARKS
WICHITA FALLS  CLEAR     87  59  38 S12       30.02R
WF-KICKAPOO    CLEAR     87  56  33 S5        30.05R
VERNON         CLOUDY    91  58  33 S13       30.03R
ABILENE        CLEAR     87  54  32 S15       30.08R
ABILENE-DYESS  CLEAR     86  56  35 S14G25    30.07R
BRECKENRIDGE   CLEAR     89  56  33 SE10      30.06R HAZE
MINERAL WELLS  CLEAR     85  61  44 S10       30.06R
STEPHENVILLE   CLEAR     85  58  39 SE8       30.12R
COMANCHE       CLEAR     84  58  41 S10       30.10R
BROWNWOOD      CLEAR     84  55  37 SE9       30.09R HAZE
COLEMAN        CLEAR     86  52  31 S7        30.09R
BRADY          CLEAR     84  55  37 SE9       30.10R
$$

TXZ143>147-156>162-174-175-120300-
CENTRAL TEXAS

CITY           SKY/WX    TMP DP  RH WIND       PRES   REMARKS
WACO           CLEAR     85  62  46 SE9       30.08R
WACO-TSTC      CLEAR     84  61  45 CALM      30.08R
WACO-MCGREGOR  CLEAR     86  59  39 SE9       30.09R
HILLSBORO      CLEAR     85  59  41 SE7       30.09R
CORSICANA      CLEAR     86  67  52 SE6       30.10R
MEXIA          CLEAR     83  70  65 CALM      30.09R
HEARNE         CLEAR     89  73  60 SE5       30.10R HX  97
CAMERON        CLEAR     86  68  55 S3        30.10R
TEMPLE         CLEAR     86  59  39 SE12      30.10R
KILLEEN        CLEAR     86  61  42 SE10      30.10R
KILLEEN-SKYLRK CLEAR     88  59  37 SE16      30.10R
FORT HOOD      CLEAR     89  60  37 SE12G17   30.10R
GATESVILLE     CLEAR     84  63  48 S3        30.11R
HAMILTON       CLEAR     82  60  47 SE7       30.12R
LAMPASAS       CLEAR     81  58  44 CALM      30.11R
$$

TXZ095>097-106>112-122>126-135>138-148>153-164>167-120300-
EAST TEXAS

CITY           SKY/WX    TMP DP  RH WIND       PRES   REMARKS
PARIS          CLEAR     82  63  51 S7        30.10R
SULPHUR SPRNGS CLEAR     88  65  45 S6        30.12R HX  90
CLARKSVILLE    PTCLDY    87  67  52 SE3       30.09R
MOUNT PLEASANT CLEAR     84  69  60 E3        30.11R
GILMER         CLEAR     86  72  62 CALM      30.12R HX  92
MINEOLA        CLEAR     84  70  61 CALM      30.11R
TYLER          CLEAR     84  71  65 SE5       30.11R
LONGVIEW       CLEAR     81  72  74 SE3       30.10R
MARSHALL         N/A     85  77  77 CALM      30.12  HX  95
ATHENS         CLEAR     81  70  69 CALM      30.09R
PALESTINE      CLEAR     82  73  75 CALM      30.12R
JACKSONVILLE   CLEAR     83  72  69 CALM      30.14R
HENDERSON      CLEAR     81  72  74 CALM      30.12R
NACOGDOCHES    CLEAR     81  72  74 SE3       30.11R
LUFKIN         CLEAR     86  74  67 CALM      30.10R HX  94
$$

SUPPLEMENTAL OBSERVATIONS (CENTRAL)

CITY           SKY/WX    TMP DP  RH WIND       PRES   REMARKS
LAKE TEXOMA      N/A     88  59  37 SE7         N/A
CADDO GRASSLND   N/A     84  63  48 S6          N/A
PAT MAYSE LAKE   N/A     88  68  51 SE6         N/A  HX  91
GREENVILLE       N/A     84  64  51 S2          N/A
CEDAR HILL       N/A     86  57  37 SE6         N/A
ATHENS           N/A     84  70  61 S3          N/A
PALESTINE        N/A     81  73  78 CALM        N/A
MCGREGOR         N/A     86  63  45 S8          N/A
TEMPLE           N/A     84  57  39 S8          N/A
$$

SUPPLEMENTAL OBSERVATIONS (WEST)

CITY           SKY/WX    TMP DP  RH WIND       PRES   REMARKS
MILLERS CREEK    N/A     88  55  33 S9          N/A
POSSUM KINGDOM   N/A     88  57  35 SE12        N/A
LBJ GRASSLAND    N/A     86  59  39 SE8         N/A
GRANBURY         N/A     86  57  37 S5          N/A
HAMBY            N/A     88  54  31 S14G23      N/A
IVIE RESERVOIR   N/A     84  55  37 SE7G18      N/A
COLORADO BEND    N/A     82  55  39 S6G14       N/A
$$

SUPPLEMENTAL OBSERVATIONS (EAST)

CITY           SKY/WX    TMP DP  RH WIND       PRES   REMARKS
TEXARKANA        N/A     81  72  74 NE1         N/A
LINDEN           N/A     82  68  61 CALM        N/A
CADDO LAKE       N/A     79  75  89 CALM        N/A
GILMER           N/A     82  70  65 CALM        N/A
HENDERSON        N/A     82  72  69 CALM        N/A
LUFKIN           N/A     84  75  74 MISG        N/A  HX  92
S SABINE NF      N/A     81  73  78 NE1         N/A
$$

SUPPLEMENTAL OBSERVATIONS ARE A COLLECTION OF AUTOMATED INSTRUMENTS
THAT ARE MAINTAINED BY A VARIETY OF FEDERAL AND STATE AGENCIES.
CERTAIN ELEMENTS...SUCH AS HUMIDITY VALUES AND SUSTAINED WIND
SPEEDS...MAY BE APPROXIMATED.




USA.gov is the U.S. government's official web portal to all federal, state and local government web resources and services.